Total_Precipitation_Accumulation
0.77 0.81 0.90 0.98 1.00 1.09 1.17 1.16 1.14 1.21 1.27 1.26 1.23 1.20 1.17 1.20 1.31 1.41 1.42 1.44 1.49 1.46 1.47 1.50 1.48 1.45 1.49 1.47 1.46 1.45 1.48 1.69 1.68 0.91 0.65 0.70 0.82 0.88 0.90 0.87 0.88 0.94 0.98
0.82 0.83 0.86 0.97 1.02 1.06 1.13 1.21 1.20 1.22 1.27 1.26 1.27 1.23 1.13 1.11 1.18 1.27 1.33 1.36 1.39 1.37 1.37 1.42 1.42 1.44 1.49 1.51 1.56 1.54 1.50 1.54 1.68 1.32 0.87 0.82 0.88 0.91 0.95 0.96 0.91 0.91 0.93
0.76 0.85 0.87 0.90 0.99 1.10 1.17 1.21 1.22 1.20 1.24 1.27 1.28 1.28 1.22 1.18 1.21 1.23 1.25 1.29 1.29 1.27 1.26 1.30 1.35 1.43 1.49 1.47 1.50 1.53 1.49 1.44 1.50 1.51 1.13 0.92 0.95 1.00 1.06 1.09 1.07 1.06 1.02
0.78 0.80 0.91 0.97 0.98 1.05 1.14 1.20 1.27 1.28 1.26 1.30 1.30 1.30 1.32 1.33 1.44 1.44 1.34 1.31 1.24 1.21 1.19 1.23 1.30 1.41 1.51 1.60 1.70 1.62 1.55 1.63 1.64 1.66 1.41 1.13 1.04 1.03 1.21 1.28 1.26 1.19 1.14
0.97 0.94 0.92 0.98 1.00 0.98 1.05 1.09 1.17 1.25 1.26 1.24 1.21 1.22 1.26 1.38 1.69 1.74 1.55 1.41 1.32 1.25 1.18 1.17 1.20 1.41 1.66 1.91 2.05 1.98 1.95 2.04 1.99 1.97 1.75 1.44 1.25 1.25 1.31 1.30 1.37 1.27 1.23
1.10 1.11 0.99 0.96 0.96 0.99 1.02 1.04 1.07 1.13 1.15 1.15 1.13 1.12 1.20 1.37 1.83 1.92 1.72 1.45 1.37 1.33 1.29 1.21 1.20 1.32 1.43 1.65 1.89 1.98 2.06 2.20 2.28 2.23 2.06 1.78 1.40 1.27 1.32 1.50 1.66 1.70 1.54
1.12 1.18 1.14 1.02 0.95 0.96 0.96 0.97 0.97 0.99 1.04 1.04 1.04 1.07 1.08 1.27 1.76 1.79 1.63 1.34 1.25 1.25 1.22 1.15 1.16 1.16 1.26 1.17 1.32 1.46 1.54 1.75 2.02 2.19 2.25 1.82 1.50 1.38 1.62 1.88 1.91 1.90 1.64
1.16 1.14 1.10 1.01 0.92 0.94 0.97 0.93 0.87 0.88 0.94 0.96 0.98 1.00 0.99 1.06 1.50 1.74 1.60 1.19 1.13 1.18 1.18 1.16 1.15 1.11 1.14 1.26 1.32 1.33 1.23 1.24 1.49 1.75 1.89 1.73 1.62 1.64 1.90 2.24 2.40 2.46 2.07
1.07 1.06 1.03 0.99 0.94 0.97 1.02 0.96 0.87 0.87 0.89 0.89 0.89 0.94 0.95 0.98 1.29 1.70 1.76 1.29 1.24 1.20 1.20 1.31 1.36 1.24 1.33 1.57 1.64 1.58 1.34 1.16 1.25 1.60 1.89 1.94 2.02 2.22 2.47 2.86 3.17 3.29 2.92
0.90 0.94 0.99 0.95 0.94 0.98 1.04 0.99 0.95 0.92 0.94 0.96 0.94 0.97 0.97 0.93 1.17 1.61 1.92 1.49 1.41 1.27 1.24 1.37 1.70 1.64 1.66 1.73 1.72 1.75 1.69 1.35 1.22 1.27 1.39 1.50 1.53 1.64 2.05 2.37 2.69 3.08 3.03
0.78 0.81 0.92 0.95 0.94 0.95 1.00 1.03 1.02 1.01 1.03 1.06 1.03 1.01 0.99 0.96 1.04 1.34 1.84 1.73 1.54 1.45 1.42 1.44 1.56 1.72 1.71 1.76 1.81 1.76 1.82 1.73 1.64 1.60 1.51 1.43 1.45 1.56 1.72 1.96 2.23 2.63 2.94
0.76 0.78 0.83 0.91 0.91 0.93 0.96 0.96 0.95 1.02 1.10 1.12 1.11 1.08 1.04 1.02 1.04 1.20 1.56 1.81 1.75 1.53 1.46 1.34 1.42 1.66 1.71 1.76 1.72 1.75 1.88 1.90 1.76 1.71 1.62 1.51 1.45 1.48 1.51 1.66 1.92 2.12 2.32
0.74 0.78 0.83 0.89 0.90 0.89 0.90 0.91 0.89 0.92 1.02 1.09 1.10 1.12 1.09 1.05 1.09 1.26 1.34 1.46 1.59 1.48 1.44 1.64 1.64 1.65 1.60 1.53 1.57 1.65 1.62 1.56 1.62 1.62 1.47 1.31 1.21 1.23 1.34 1.53 1.72 1.92 2.08
0.79 0.83 0.87 0.92 0.95 0.90 0.85 0.85 0.87 0.93 1.11 1.20 1.17 1.14 1.08 1.05 1.12 1.33 1.38 1.35 1.42 1.45 1.45 1.57 1.57 1.45 1.35 1.34 1.42 1.44 1.39 1.44 1.58 1.59 1.44 1.30 1.22 1.27 1.37 1.47 1.67 1.83 2.11
0.78 0.84 0.90 0.94 0.95 0.93 0.87 0.88 0.92 0.96 1.20 1.48 1.43 1.38 1.39 1.38 1.45 1.77 1.77 1.65 1.65 1.68 1.69 1.66 1.53 1.38 1.31 1.23 1.20 1.18 1.21 1.35 1.49 1.45 1.46 1.46 1.42 1.41 1.43 1.44 1.62 1.79 2.00
0.78 0.80 0.87 0.96 0.98 0.93 0.88 0.90 0.94 0.97 1.08 1.12 1.16 1.28 1.30 1.48 1.65 1.65 1.59 1.57 1.63 1.68 1.71 1.61 1.39 1.27 1.22 1.16 1.16 1.17 1.16 1.20 1.25 1.33 1.42 1.46 1.48 1.50 1.50 1.49 1.63 1.80 1.87
0.81 0.83 0.85 0.89 0.92 0.92 0.89 0.86 0.90 0.91 0.93 0.96 0.99 1.06 1.20 1.39 1.43 1.42 1.47 1.43 1.43 1.44 1.43 1.30 1.20 1.18 1.16 1.14 1.15 1.17 1.15 1.10 1.16 1.31 1.41 1.47 1.51 1.55 1.56 1.56 1.61 1.70 1.74
0.79 0.84 0.87 0.89 0.91 0.90 0.90 0.88 0.86 0.86 0.90 0.93 0.93 0.96 1.06 1.19 1.27 1.31 1.37 1.34 1.31 1.23 1.19 1.21 1.19 1.15 1.14 1.16 1.17 1.18 1.16 1.14 1.18 1.26 1.32 1.36 1.42 1.53 1.56 1.48 1.48 1.61 1.69
0.70 0.77 0.82 0.86 0.88 0.88 0.88 0.87 0.86 0.84 0.85 0.88 0.90 0.95 1.01 1.06 1.14 1.22 1.22 1.17 1.19 1.15 1.11 1.14 1.14 1.18 1.19 1.16 1.15 1.15 1.18 1.21 1.18 1.20 1.22 1.23 1.28 1.43 1.46 1.36 1.39 1.52 1.73
0.64 0.76 0.82 0.83 0.84 0.86 0.88 0.89 0.89 0.90 0.90 0.88 0.92 1.00 1.08 1.14 1.16 1.17 1.14 1.12 1.14 1.11 1.07 1.13 1.10 1.12 1.18 1.20 1.19 1.18 1.21 1.20 1.18 1.18 1.18 1.18 1.22 1.36 1.41 1.35 1.41 1.52 1.60
0.63 0.69 0.77 0.78 0.80 0.84 0.89 0.94 0.95 0.98 0.98 0.94 0.93 0.98 1.29 1.44 1.28 1.12 1.10 1.14 1.20 1.23 1.19 1.17 1.10 1.06 1.08 1.14 1.20 1.20 1.21 1.16 1.12 1.18 1.21 1.21 1.25 1.34 1.33 1.38 1.43 1.47 1.55
0.66 0.71 0.74 0.77 0.80 0.85 0.93 0.95 0.95 0.98 0.96 0.94 0.92 0.93 1.04 1.04 1.03 1.02 1.03 1.09 1.17 1.23 1.26 1.29 1.19 1.06 1.06 1.19 1.27 1.30 1.23 1.12 1.09 1.19 1.27 1.26 1.27 1.32 1.36 1.40 1.41 1.47 1.54
0.72 0.75 0.75 0.74 0.78 0.87 0.90 0.87 0.90 0.94 0.95 0.92 0.90 0.91 0.94 0.96 0.99 1.03 1.08 1.10 1.16 1.21 1.20 1.21 1.20 1.07 0.99 1.08 1.18 1.32 1.37 1.24 1.20 1.35 1.51 1.45 1.36 1.35 1.38 1.41 1.38 1.45 1.48
0.77 0.78 0.80 0.79 0.80 0.82 0.85 0.86 0.88 0.91 0.92 0.93 0.92 0.93 0.95 0.96 0.97 1.02 1.06 1.11 1.16 1.17 1.16 1.16 1.13 1.06 1.00 1.04 1.08 1.11 1.19 1.31 1.55 1.72 1.69 1.68 1.54 1.38 1.38 1.41 1.37 1.35 1.42
0.78 0.79 0.82 0.84 0.86 0.87 0.88 0.86 0.87 0.90 0.93 0.94 0.94 0.94 0.93 0.94 0.96 0.99 1.03 1.09 1.14 1.16 1.11 1.09 1.09 1.06 1.00 0.98 0.98 1.03 1.17 1.38 1.65 2.02 2.24 2.14 1.80 1.51 1.45 1.44 1.38 1.36 1.40
0.77 0.76 0.79 0.82 0.87 0.91 0.96 0.96 0.94 0.94 0.99 0.98 0.95 0.97 0.98 1.00 1.00 1.03 1.06 1.13 1.20 1.18 1.12 1.08 1.03 0.99 0.98 0.97 0.97 1.05 1.22 1.46 1.70 1.99 2.47 2.64 2.19 1.71 1.54 1.55 1.44 1.42 1.46